Weather History for Pompano Beach, FL

Change the Weather History Date:

Saturday, June 15, 2013

  Actual Average Record
Temperature  
Mean Temperature 92 °F -  
Max Temperature 107 °F 90 °F 107 °F (2013)
Min Temperature 81 °F 74 °F 67 °F (1978)
Cooling Degree Days 28    
Growing Degree Days 42 (Base 50)    
Moisture  
Dew Point 75 °F    
Average Humidity 53    
Maximum Humidity 85    
Minimum Humidity 38    
Precipitation  
Precipitation 0.00 in - - ()
Sea Level Pressure  
Sea Level Pressure 30.01 in    
Wind  
Wind Speed 5 mph (ESE)    
Max Wind Speed 10 mph    
Max Gust Speed -    
Visibility 10 miles    
Events      
Averages and records for this station are not official NWS values.
T = Trace of Precipitation, MM = Missing Value Source: NWS Daily Summary

Daily Weather History Graph

Daily Weather History Graph

Search for Another Location

Airport:

Trip Planner

Search our weather history database for the weather conditions in past years. The results will help you decide how hot, cold, wet, or windy it might be!

Date:

Astronomy

Jun. 15, 2013 Rise Set
Actual Time 6:27 AM EDT 8:14 PM EDT
Civil Twilight 6:01 AM EDT 8:40 PM EDT
Nautical Twilight 5:30 AM EDT 9:12 PM EDT
Astronomical Twilight 4:56 AM EDT 9:45 PM EDT
Moon 12:27 PM EDT (6/15) 12:19 AM EDT (6/15)
Length of Visible Light 14h 38m
Length of Day
13h 46m
Waxing Crescent, 39% of the Moon is Illuminated
Jun 15
Waxing Crescent
Jun 16
First Quarter
Jun 23
Full
Jun 30
Last Quarter
Jul 8
New

Hourly Weather History & Observations

Time (EDT) Temp. Heat Index Dew Point Humidity Pressure Visibility Wind Dir Wind Speed Gust Speed Precip Events Conditions
12:53 AM 91.0 °F 106.2 °F 78.1 °F 66% 29.96 in 10.0 mi SSW 4.6 mph - N/A   Clear
1:53 AM 93.0 °F 106.7 °F 77.0 °F 59% 29.96 in 10.0 mi WSW 4.6 mph - N/A   Clear
2:53 AM 90.0 °F 102.5 °F 77.0 °F 65% 29.96 in 10.0 mi West 4.6 mph - N/A   Clear
3:53 AM 91.9 °F 105.9 °F 77.0 °F 62% 29.96 in 10.0 mi West 5.8 mph - N/A   Clear
4:53 AM 86.0 °F 96.0 °F 75.9 °F 72% 29.97 in 10.0 mi Calm Calm - N/A   Clear
5:53 AM 81.0 °F 87.3 °F 75.9 °F 85% 29.99 in 10.0 mi Calm Calm - N/A   Clear
6:53 AM 82.0 °F 88.6 °F 75.0 °F 79% 30.01 in 9.0 mi West 3.5 mph - N/A   Clear
7:53 AM 96.1 °F 111.0 °F 77.0 °F 54% 30.01 in 10.0 mi NW 8.1 mph - N/A   Clear
8:53 AM 89.1 °F 99.1 °F 75.0 °F 63% 30.03 in 10.0 mi NNW 5.8 mph - N/A   Scattered Clouds
9:53 AM 99.0 °F 111.8 °F 75.0 °F 46% 30.04 in 10.0 mi Calm Calm - N/A   Scattered Clouds
10:53 AM 100.0 °F 108.6 °F 71.1 °F 39% 30.03 in 10.0 mi NNW 3.5 mph - N/A   Scattered Clouds
11:53 AM 104.0 °F 116.8 °F 73.9 °F 38% 30.04 in 10.0 mi East 5.8 mph - N/A   Scattered Clouds
12:53 PM 104.0 °F 116.8 °F 73.9 °F 38% 30.04 in 10.0 mi ESE 6.9 mph - N/A   Partly Cloudy
1:53 PM 100.9 °F 113.2 °F 73.9 °F 42% 30.02 in 10.0 mi East 10.4 mph - N/A   Clear
2:53 PM 100.9 °F 114.1 °F 75.0 °F 43% 30.01 in 10.0 mi East 10.4 mph - N/A   Scattered Clouds
3:53 PM 102.9 °F 115.2 °F 73.9 °F 39% 30.01 in 10.0 mi East 9.2 mph - N/A   Scattered Clouds
4:53 PM - - - N/A% 30.01 in 10.0 mi East 10.4 mph - N/A   Partly Cloudy
5:53 PM 99.0 °F 111.8 °F 75.0 °F 46% 30.00 in 10.0 mi ESE 8.1 mph - N/A   Clear
6:53 PM 98.1 °F 112.1 °F 75.9 °F 49% 30.01 in 10.0 mi East 8.1 mph - N/A   Clear
7:53 PM 97.0 °F 109.3 °F 75.0 °F 49% 30.02 in 10.0 mi SE 8.1 mph - N/A   Clear
8:53 PM 98.1 °F 112.1 °F 75.9 °F 49% 30.03 in 10.0 mi SE 6.9 mph - N/A   Clear
9:53 PM 98.1 °F 111.2 °F 75.0 °F 48% 30.04 in 10.0 mi SE 6.9 mph - N/A   Clear
10:53 PM 97.0 °F 107.7 °F 73.9 °F 47% 30.06 in 10.0 mi SE 5.8 mph - N/A   Clear
11:53 PM 93.9 °F 104.0 °F 73.9 °F 52% 30.07 in 10.0 mi SE 3.5 mph - N/A   Clear